Content
SEND FEEDBACK

Daily
Averages
Monthly
Summary
United States of America

FARMER CITY, ILLINOIS


Home > North America > United States > Illinois
Elevation: 730 feet     Latitude: 40 14N     Longitude: 088 38W

WEATHER
 
SELECT A DAY
Number of Records: 163,588;   Date Range: 1/1/95 - 8/30/14
 
SHARE

PRINT THIS DATA

[ ← Previous Day ]
WEATHER ALMANAC - JANUARY 31, 2013
[ Next Day → ]
[ °C ]   °F
Weather ElementAverageHighLow
Temperature13.9 °F21.2 °F (5:06 am)4.1 °F (11:56 pm)
Dewpoint7.2 °F18.1 °F (4:56 am)-2.9 °F (8:56 pm)
Humidity74.9 %93 % (4:30 am)63 % (8:56 pm)
Barometer30.04 in30.34 in (11:56 pm)29.81 in (4:30 am)
Wind Speed19.4 mph28.8 mph (8:05 pm)
Wind Gust35.7 mph (8:05 pm)
Weather ElementAverage
Visibility6.9 mi
Wind DirectionWNW (285.4 °)

Weather ElementTotal
Precipitation---
Heating Degree Days52.4 (Base 65)
Averaged from 35 records on January 31, 2013
WEATHER CONDITIONS BREAKOUT
WIND DIRECTION BREAKOUT
WEATHER BY HOUR - JANUARY 31, 2013
[ °C ]   °F
Local TimeTemperatureDewpointHumidityBarometerVisibilityWind DirectionWind SpeedGust SpeedPrecipitationEventsConditions
1:56 AM17.1 °F11.1 °F77 %29.86 in10.0 miWest (280°)16.1 mph27.6 mph0.00 inSnowLight Snow
2:56 AM18.1 °F13.1 °F81 %29.87 in10.0 miWest (270°)18.4 mph23.0 mph0.00 inOvercast
3:56 AM20.1 °F16.2 °F85 %29.87 in5.0 miWest (270°)13.8 mph0.00 inSnowLight Snow
4:30 AM19.4 °F17.6 °F93 %29.81 in4.0 miWest (270°)12.7 mph0.00 inSnowLight Snow
4:56 AM21.0 °F18.1 °F89 %29.87 in4.0 miWest (260°)12.7 mph0.00 inSnowLight Snow
5:06 AM21.2 °F17.6 °F86 %29.81 in3.0 miWest (270°)13.8 mph0.00 inSnowLight Snow
5:40 AM21.2 °F17.6 °F86 %29.81 in5.0 miWest (270°)12.7 mph0.00 inSnowLight Snow
5:56 AM21.0 °F17.1 °F85 %29.88 in7.0 miWest (270°)15.0 mph20.7 mph0.00 inSnowLight Snow
6:56 AM20.1 °F15.1 °F81 %29.91 in8.0 miWNW (290°)19.6 mph26.5 mph0.00 inSnowLight Snow
7:41 AM17.6 °F10.4 °F73 %29.87 in10.0 miWest (280°)21.9 mph28.8 mph0.00 inOvercast
7:56 AM18.1 °F10.0 °F71 %29.94 in10.0 miWest (280°)20.7 mph27.6 mph0.00 inScattered Clouds
8:56 AM18.1 °F12.0 °F77 %29.98 in10.0 miWNW (300°)13.8 mphScattered Clouds
9:44 AM17.6 °F12.2 °F79 %29.91 in5.0 miWNW (300°)15.0 mph0.00 inSnowLight Snow
9:56 AM18.1 °F12.0 °F77 %30.00 in3.0 miWNW (290°)16.1 mph0.00 inSnowLight Snow
9:59 AM17.6 °F12.2 °F79 %29.92 in2.5 miWNW (290°)18.4 mph0.00 inSnowLight Snow
10:56 AM18.1 °F11.1 °F74 %30.01 in6.0 miWest (280°)18.4 mph0.00 inSnowLight Snow
11:56 AM18.1 °F11.1 °F74 %30.02 in6.0 miWest (280°)18.4 mph0.00 inSnowLight Snow
12:56 PM18.1 °F8.1 °F65 %30.03 in9.0 miWest (280°)15.0 mph28.8 mph0.00 inSnowLight Snow
1:56 PM17.1 °F7.2 °F65 %30.03 in10.0 miWNW (290°)20.7 mph0.00 inMostly Cloudy
2:56 PM15.1 °F7.2 °F71 %30.06 in3.0 miWest (280°)23.0 mph29.9 mph0.00 inSnowLight Snow
3:56 PM14.0 °F5.0 °F67 %30.09 in5.0 miWNW (290°)24.2 mph29.9 mph0.00 inSnowLight Snow
4:56 PM12.0 °F4.1 °F71 %30.12 in7.0 miWNW (290°)20.7 mph31.1 mph0.00 inSnowLight Snow
5:56 PM10.0 °F3.0 °F73 %30.17 in9.0 miWest (280°)20.7 mph0.00 inSnowLight Snow
6:31 PM8.6 °F-0.4 °F67 %30.10 in10.0 miWNW (290°)23.0 mph0.00 inScattered Clouds
6:56 PM9.1 °F0.1 °F67 %30.20 in9.0 miWNW (290°)25.3 mph32.2 mph0.00 inSnowLight Snow
8:05 PM6.8 °F-0.4 °F72 %30.14 in5.0 miWNW (290°)28.8 mph35.7 mph0.00 inSnowLight Snow
8:40 PM6.8 °F-0.4 °F72 %30.16 in6.0 miWNW (290°)27.6 mph0.00 inSnowLight Snow
8:56 PM7.2 °F-2.9 °F63 %30.26 in10.0 miWNW (300°)26.5 mph33.4 mph0.00 inSnowLight Snow
9:07 PM6.8 °F-2.2 °F67 %30.17 in10.0 miWNW (290°)21.9 mph27.6 mph0.00 inScattered Clouds
9:47 PM6.8 °F-2.2 °F67 %30.20 in9.0 miWNW (300°)20.7 mph33.4 mph0.00 inMostly Cloudy
9:56 PM6.1 °F-2.9 °F67 %30.29 in10.0 miWNW (300°)19.6 mph29.9 mph0.00 inScattered Clouds
10:22 PM6.8 °F-0.4 °F72 %30.21 in4.0 miWNW (300°)24.2 mph28.8 mph0.00 inSnowLight Snow
10:56 PM5.0 °F-2.9 °F70 %30.31 in10.0 miWNW (290°)23.0 mph26.5 mph0.00 inSnowLight Snow
11:48 PM5.0 °F-0.4 °F78 %30.24 in1.8 miWNW (290°)20.7 mph0.00 inSnowLight Snow
11:56 PM4.1 °F-0.9 °F80 %30.34 in5.0 miWNW (300°)16.1 mph0.00 inSnowLight Snow
Hourly data recorded from KBMI, located miles away from Farmer City, Illinois







STORIES FROM OUR PARTNERS